STARLINK-30327, 57707

Orbit data source: Space-Track

STARLINK-30327, 57707 is a payload satellite owned by SpaceX/Seattle (US) in LEO that was launched on Sun, 27 Aug 2023 UTC via an FALCON 9 launch vehicle from the Air Force Eastern Test Range (AFETR). Payload-class satellites include a variety of spacecraft equipped with specific instruments for various scientific and technological missions. These include communications satellites like Starlink; space stations such as the ISS; scientific satellites like the Hubble; Earth observation satellites from companies like Planet Labs, Umbra, and HawkEye 360; GPS; miniature CubeSats for education and research; and military/defense satellites.

Loading next visibility...
Identifier
57707, 2023-129K
Orbit
LEO
Country
Flag of USUS
Related business
Manufacturer
SpaceX/Seattle
Mission
Partially operational Commercial Communications
Bus & Motor
STARLINK V2M, Unknown motor
Mass
730 kg wet, ~700 kg dry
Launch date (UTC)
2023-08-27 (3 years ago)
Launch vehicle
FALCON 9
Launch site
Air Force Eastern Test Range (AFETR)
Object type
Payload
Rocket body
Debris
Shape & HBR
Box + 2 Pan, 17.7 m
Radar Cross Section
33.884 m², Large (>1 m²)

Expand to show TLE details & history
Last TLE update: 2 days ago

TLE from 2 days ago
0 STARLINK-30327
1 57707U 23129K   26171.43356369  .00015949  00000-0  39536-3 0  9996
2 57707  42.9962 220.3870 0028038  36.7129 323.5641 15.39758151156697
Epoch: 2026-06-20T10:24Z
TLE epoch observation values (Epoch: 2026-06-20T10:24:19.902Z)
Latitude
-0.00005°
Longitude
155.65577°
Altitude
431.224 km
Speed
7.663 km/s
True Right ascension
14h 41m 32s
True Declination
0° 00' 00"
Sunlit
Object was in full shadow at epoch
Visualization orbit readout
Latitude
Unknown
Longitude
Unknown
Altitude
Unknown
Speed
Unknown
Apparent Right ascension
Unknown
Apparent Declination
Unknown
Sunlit
N/A
Visualization observer readout
Local Sidereal Time
21:29:47
Azimuth
Unknown
Elevation
Unknown
Doppler factor
Unknown
Orbital elements
Apogee altitude
467.921 km
Perigee altitude
429.639 km
Semi-major axis
6,826.917 km
Eccentricity
0.0028
Inclination
42.9962°
RAAN
220.387°
Arg. of periapsis
36.7129°
True anomaly
323.37274°
Mean anomaly
323.5641°
Eccentric anomaly
323.46847°
Mean motion
3.84774 °/min
Orbital period
93.56 mins
BSTAR
0.00039536
Loading maneuver chart data...
Computing Atmospheric mass density...
Loading historical data...
Loading historical data...
Loading historical data...
Loading historical data...
Loading historical data...
Loading historical data...
Loading historical data...

Documentation

Showing up to 5 results
|